#timestamp,LO_Frequency,Hit,StdDev 
1581732015.3,286046986.7,N
1581732035.1,286046983.9,N
1581732055.9,286046986.6,N
1581732075.7,286046985.8,N
1581732095.6,286046984.5,N
1581732115.4,286046988.3,N
1581732135.2,286046986.6,N
1581732155.1,286046992.4,N
1581732186.0,286046988.4,E
1581732195.0,286046991.4,N
1581732195.9,286046991.4,P
1581732215.8,286046992.7,P
1581732235.6,286046994.3,Y
1581732255.4,286047004.2,P
1581732275.3,286047002.9,N
1581732295.1,286047002.4,N
1581732315.9,286047009.9,N
1581732335.7,286047004.6,N
1581732355.5,286047003.1,N
1581732375.4,286047001.6,N
1581732395.2,286047005.9,N
1581732415.0,286047015.0,Y
1581732415.9,286047015.0,P
1581732435.8,286047007.3,N
1581732455.6,286047007.5,N
1581732475.5,286047001.3,N
1581732495.3,286047005.7,N
1581732515.1,286047009.9,N
1581732535.9,286047008.4,N
1581732555.7,286047008.0,N
1581732575.5,286047012.1,Y
1581732595.4,286047002.6,P
1581732615.2,286047002.0,N
1581732635.1,286047006.7,N
1581732636.0,286047006.7,N
1581732655.8,286047001.6,N
1581732675.6,286047000.0,N
1581732695.5,286046997.6,N
1581732715.3,286046995.0,N
1581732735.2,286046998.3,N
1581732755.9,286046999.9,N
1581732775.7,286046999.7,N
1581732795.6,286046996.9,N
1581732815.4,286046998.5,N
1581732835.2,286046999.9,N
1581732855.1,286047000.3,N
1581732856.0,286047000.3,N
1581732875.8,286046999.2,N
1581732895.6,286047001.3,N
1581732915.5,286047005.3,N
1581732935.3,286047011.7,Y
1581732955.2,286047007.8,P
1581732975.0,286047004.9,N
1581732975.9,286047004.9,N
1581732995.7,286047008.1,Y
1581733015.6,286047004.5,P
1581733035.4,286047009.0,P
1581733055.3,286047013.2,P
1581733075.1,286047006.4,N
1581733076.0,286047006.4,N
1581733095.8,286047003.1,N
1581733115.7,286047001.6,N
1581733135.5,286047001.0,N
1581733155.3,286046995.7,N
1581733175.2,286046995.0,N
1581733195.0,286046990.3,N
1581733195.9,286046990.3,N
1581733215.8,286046992.5,N
1581733235.6,286046993.5,N
1581733255.4,286046990.7,N
1581733275.3,286046992.3,N
1581733295.1,286046998.8,N
1581733315.9,286047007.0,N
1581733335.7,286047005.4,N
1581733355.5,286046998.9,N
1581733375.4,286046995.7,N
1581733395.2,286046999.4,N
1581733415.0,286046995.7,N
1581733415.9,286046995.7,N
1581733435.8,286046997.1,N
1581733455.6,286046993.5,N
1581733475.5,286046997.4,N
1581733495.3,286046996.1,N
1581733515.2,286046990.2,N
1581733535.9,286046991.6,N
1581733555.7,286046990.4,N
1581733575.6,286046994.6,N
1581733595.4,286046992.9,N
1581733615.3,286046992.4,N
1581733635.1,286046987.7,N
1581733636.0,286046987.7,N
1581733655.8,286046986.0,Y
1581733675.7,286046990.2,P
1581733695.5,286046992.6,P
1581733715.3,286046986.9,P
1581733735.2,286046991.2,N
1581733755.0,286046991.8,Y
1581733755.9,286046991.8,P
1581733775.8,286047003.1,P
1581733795.6,286047011.1,N
1581733815.4,286047009.8,N
1581733835.3,286047010.2,N
1581733855.1,286047007.1,N
1581733875.8,286047011.5,N
1581733895.7,286047012.9,N
1581733915.5,286047016.3,N
1581733935.4,286047012.8,N
1581733955.2,286047011.5,N
1581733975.0,286047009.4,N
1581733975.9,286047009.4,N
1581733995.8,286047012.7,N
1581734015.6,286047019.7,N
1581734035.4,286047018.6,N
1581734055.3,286047020.0,N
1581734075.1,286047017.9,N
1581734095.9,286047012.6,N
1581734115.7,286047020.8,N
1581734135.5,286047015.7,N
1581734155.4,286047011.9,N
1581734175.2,286047015.4,N
1581734195.1,286047014.7,N
1581734196.0,286047014.7,N
1581734215.8,286047017.4,N
1581734235.6,286047010.9,N
1581734255.5,286047007.0,N
1581734275.3,286047011.3,N
1581734295.1,286047007.8,N
1581734315.9,286047008.7,N
1581734335.7,286047015.1,Y
1581734355.6,286047000.7,P
1581734375.4,286047003.7,N
1581734395.2,286046997.3,N
1581734415.1,286046997.8,N
1581734416.0,286046997.8,N
1581734435.8,286046999.7,N
1581734455.7,286046997.2,N
1581734475.5,286046999.3,N
1581734495.3,286046999.1,N
1581734515.2,286046997.1,N
1581734535.9,286047001.9,N
1581734555.7,286047002.3,N
1581734575.6,286046997.2,N
1581734595.4,286046993.4,N
1581734615.2,286046990.4,N
1581734635.1,286046994.5,N
1581734636.0,286046994.5,N
1581734655.8,286046994.5,N
1581734675.7,286046992.9,N
1581734695.5,286046992.4,N
1581734715.3,286046998.2,N
1581734735.2,286046999.0,N
1581734755.0,286046997.4,N
1581734755.9,286046997.4,N
1581734775.8,286046994.0,N
1581734795.6,286046988.9,N
1581734815.4,286046991.2,N
1581734835.3,286046996.6,N
1581734855.1,286047000.0,N
1581734875.8,286047000.8,N
1581734895.7,286046996.9,N
1581734915.5,286046994.9,N
1581734935.4,286047000.4,N
1581734955.2,286046997.7,N
1581734975.0,286046992.1,N
1581734975.9,286046992.1,N
1581734995.8,286046995.9,N
1581735015.6,286046996.3,N
1581735035.4,286046992.0,N
1581735055.3,286047004.4,N
1581735075.1,286047005.3,N
1581735095.9,286047005.7,N
1581735115.7,286047008.7,N
1581735135.5,286047009.0,N
1581735155.4,286046998.8,N
1581735175.2,286046995.5,N
1581735195.0,286046993.2,N
1581735196.0,286046993.2,N
1581735215.8,286046992.3,N
1581735235.6,286046999.1,N
1581735255.5,286047000.8,N
1581735275.3,286047000.9,N
1581735295.1,286047000.8,N
1581735315.9,286047002.1,N
1581735335.7,286047004.8,N
1581735355.6,286046997.3,N
1581735375.4,286047000.1,N
1581735395.2,286047000.6,N
1581735415.1,286046998.0,N
1581735416.0,286046998.0,N
1581735435.8,286046994.9,N
1581735455.6,286046996.9,N
1581735475.5,286046998.9,N
1581735495.3,286047004.6,N
1581735515.2,286046999.7,N
1581735535.9,286047000.3,N
1581735555.7,286047001.8,N
1581735575.6,286046999.9,N
1581735595.4,286046995.4,N
